Погода в железнодорожной станции Чудово-3

Россия / Новгородская область     59°09′50″N   31°40′16″E
темп.,
°C
ветер,
м/с
пор.,
м/с
влажн.,
%
обл.,
%
осадки,
мм/ч
давл.,
гПа
погр.,
м
18 апреля, вс
вс1800:00+6св310795 0.0 1028293
03:00+4св39911 0.0 1028236
06:00+3св39915 0.0 1029202
09:00+8всв37625 0.0 1029430
12:00+13всв47435 0.0 10281604
15:00+14всв57365 0.0 10272018
18:00+13всв464379 0.0 10271824
21:00+9всв41163100 0.0 1029492
19 апреля, пн
пн1900:00+7всв3974100 0.0 1030392
03:00+5всв3885100 0.0 1030289
06:00+3св389037 0.0 1030258
09:00+7всв47605 0.0 1030719
12:00+10всв46415 0.0 10301398
15:00+12в45330 0.0 10291698
18:00+11в35360 0.0 10281766
21:00+5всв38570 0.0 1028163
20 апреля, вт
вт2000:00+3в27670 0.0 1028136
03:00+1всв27734 0.0 1028152
06:000всв26814 0.0 1027132
09:00+6в475240 0.0 1026744
12:00+9в4636100 0.0 10241592
15:00+10в463983 0.0 10221686
18:00+9вюв476093 0.0 10201273
21:00+6в386974 0.0 1019417
21 апреля, ср
ср2100:00+4всв388594 0.0 1017411
03:00+5всв3787100 0.0 1014731
06:00+4всв4997100 0.8 1010667
09:00+2св41096100 3.4 1007580
12:00+2св3898100 4.2 1005452
15:00+3ссв1497100 5.4 1003437
18:00+3с1198100 1.6 1002451
21:00+2зсз2399100 1.9 1003392
22 апреля, чт
чт2200:00+2з2698100 0.3 1004308
03:00+1з3798100 0.7 1005340
06:00+2зюз3898100 0.6 1007475
09:00+2зюз4897100 0.8 1010374
12:00+4зюз3794100 0.1 1012514
15:00+10зюз466880 0.4 10131079
18:00+10ююз366852 0.3 1014535
21:00+5ю249016 0.4 101659